Location: Boiro
(42.6475°N, 8.8834°W)
Time: 12:00:48
(UTC+01:00)

Vanguard 1 Rocket - Pass Details

Date: 05 December 2021
Orbit: 651 x 4224 km, 34.3° (Epoch: 21 January)

Event Time Altitude Azimuth Distance (km) Brightness Sun altitude
Exits shadow 06:00:40 40° 241° (WSW) 3,218 9.7 -30.4°
Maximum altitude 06:07:06 65° 179° (S) 3,145 9.9 -29.2°
Drops below altitude 10° 06:30:11 10° 105° (ESE) 7,291 13.0 -25.0°
Sets 06:36:24 0° 103° (ESE) 8,454 13.8 -23.9°
